Weather Roundup
Issued by NWS Chicago, IL

Home | Current Version | Previous Version | Graphics & Text | Print | Product List | Glossary On
Versions: 1 2 3 4 5 6 7 8 9 10 11 12 13 14 15 16 17 18 19 20 21 22 23 24 25 26 27 28 29 30 31 32 33 34 35 36 37 38 39 40 41 42 43 44 45 46 47 48 49 50
000
NZUS59 KLOT 231658
HRRLOT

CHICAGO AREA WEATHER ROUNDUP
NATIONAL WEATHER SERVICE CHICAGO/ROMEOVILLE IL
1200 PM CDT SAT JUL 23 2016

NOTE: "FAIR" INDICATES FEW OR NO CLOUDS BELOW 12,000 FEET WITH NO
SIGNIFICANT WEATHER AND/OR OBSTRUCTIONS TO VISIBILITY.

* THESE STATIONS ARE NOT UNDER NWS QUALITY CONTROL. THEY ALSO MAY NOT
  REPORT WEATHER SUCH AS PRECIPITATION OR FOG.

ILZ005-006-012>014-019>023-231800-
NORTHEAST ILLINOIS

CITY           SKY/WX    TMP DP  RH WIND       PRES   REMARKS
OHARE          CLOUDY    88  72  58 W7        29.98F HX  94
MIDWAY         NOT AVBL
AURORA         CLOUDY    87  77  72 S8        30.00S HX  99
WAUKEGAN       NOT AVBL
DUPAGE AIRPORT CLOUDY    88  73  61 SW9       29.99F HX  95
WHEELING       CLOUDY    89  72  56 SE3       29.99S HX  96
NORTHERLY ISL    N/A     83  75  77 SE3         N/A  HX  90
$$

WIZ051-052-058>065-066-070>072-231800-
SOUTHEAST WISCONSIN

CITY           SKY/WX    TMP DP  RH WIND       PRES   REMARKS
MILWAUKEE      CLOUDY    85  75  72 SE7       29.99R HX  93
WAUKESHA       MOSUNNY   84  70  61 CALM      30.01R HX  88
$$

INZ001>003-010>013-019-020-231800-
NORTHWEST INDIANA

CITY           SKY/WX    TMP DP  RH WIND       PRES   REMARKS
GARY*          PTSUNNY   86 N/A N/A N7        29.99F
MICHIGAN CITY* NOT AVBL
RENSSELAER*    NOT AVBL
$$

LMZ740>746-231800-
SOUTHERN LAKE MICHIGAN

STATION/POSITION TIME  SKY/WX   TEMP WIND        PRES    VSBY
                                AIR  DIR/SP/G
                 (UTC)          (F)  (DEG/KT/KT) (MB)    (MI)
HARRISON CRIB    1600            83  110/  6/  7   N/A
BURNHAM HARBOR   1600            84  150/  1/  4   N/A
CALUMET HARBOR   1600            82   50/  5/  6 1015.2R
BURNS HARBOR     1600            80   10/  3/  4 1016.3R
MICHIGAN CITY    1600            81  290/  4/  5   N/A
$$

ABBREVIATIONS USED IN REMARKS
   TC - TEMPERATURE IN CELSIUS
  WCI - WIND CHILL INDEX
   HX - HEAT INDEX
  VSB - VISIBILITY
$$




USA.gov is the U.S. government's official web portal to all federal, state and local government web resources and services.